[[{"header":{"parameterUnit":"m.s-1","parameterCategory":1,"la1":30.2991,"la2":30.254,"lo1":-89.0895,"lo2":-89.0444,"dy":0.0017,"dx":0.0017,"nx":28,"ny":28,"refTime":"2024-05-28T03:00:00:Z","depth":0,"parameterNumber":2,"parameterNumberName":"U-component_of_WINDS"},"data":[0,0,0,0,0,0,0,0,0,0,0,0,0,0,0,0,0,0,0,0,0,0,0,0,0,0,0,0,0,0,0,0,0,0,0,0,0,0,0,0,0,0,0,0,0,0,0,0,0,0,0,0,0,0,0,0,0,0,0.0719,0.072,0,0.0867,0.0869,0.087,0.0949,0.0949,0.0949,0.0949,0.1101,0.1105,0.1109,0,0,0,0,0,0,0,0,0,0,0,0,0,0.0501,0.0504,0.0718,0.072,0.0722,0.0867,0.0869,0.0871,0.0949,0.0949,0.0949,0.0949,0.11,0.1105,0.1109,0,0,0,0,0,0,0,0,0,0,0,0,0,0.0617,0.0506,0.0718,0.0779,0.0786,0.0866,0.0869,0.0871,0.0949,0.0949,0.0949,0.0949,0.1098,0.1104,0.111,0.1142,0,0,0.1128,0.113,0,0,0,0,0,0,0,0,0.061,0.0625,0.0768,0.0775,0.0782,0.089,0.0848,0.0962,0.0949,0.0887,0.0949,0.095,0.1031,0.1042,0.1069,0.1149,0.1156,0.1128,0.1132,0.1134,0.1136,0,0,0,0,0,0,0,0.0602,0.0619,0.0777,0.077,0.0779,0.0798,0.0814,0.087,0.0956,0.0892,0.0898,0.0915,0.1035,0.1064,0.1074,0.1158,0.1128,0.1133,0.1137,0.1139,0.1268,0.1268,0,0,0,0,0,0,0.0584,0.0612,0.0773,0.0782,0.0695,0.0801,0.082,0.0855,0.0955,0.0971,0.0914,0.0918,0.1053,0.1067,0.1079,0.1122,0.1134,0.114,0.1143,0.1268,0.1268,0.1268,0,0,0,0,0,0,0.0579,0.0598,0.0767,0.0698,0.0721,0.0805,0.0843,0.0858,0.0887,0.0972,0.0988,0.0928,0.1054,0.1071,0.1125,0.1128,0.1143,0.1148,0.1268,0.1268,0.1268,0.1208,0,0,0,0,0,0,0.0573,0.0596,0.0609,0.0698,0.0725,0.081,0.0844,0.0861,0.0897,0.0903,0.0989,0.1004,0.1056,0.1116,0.1131,0.1137,0.1152,0.1269,0.1268,0.1268,0.121,0.1205,0.1202,0,0,0,0,0,0.0565,0.0587,0.061,0.0629,0.0743,0.081,0.0826,0.0885,0.0897,0.0911,0.0965,0.1001,0.1125,0.1121,0.1138,0.1146,0.1269,0.1268,0.1268,0.1212,0.1206,0.1202,0,0,0,0,0,0,0.0497,0.06,0.0626,0.0678,0.0735,0.0824,0.0843,0.0878,0.0932,0.0936,0.1007,0.1025,0.1072,0.1115,0.1108,0.1181,0.1201,0.1204,0.1151,0.1147,0.1143,0.1132,0.1157,0,0,0,0,0,0.0488,0.0535,0.0622,0.0659,0.0686,0.0759,0.0791,0.0831,0.0893,0.0917,0.0976,0.1034,0.1086,0.1119,0.1172,0.1216,0.1235,0.1229,0.1225,0.1222,0.1224,0.1248,0.1246,0.1267,0.1267,0.1267,0,0,0.0471,0.0532,0.0557,0.0647,0.0696,0.0741,0.0779,0.0826,0.086,0.0925,0.0979,0.1023,0.1093,0.1141,0.1166,0.1178,0.1222,0.1221,0.1218,0.1222,0.1247,0.1245,0.1243,0.1267,0.1267,0.1267,0,0,0.0461,0.0513,0.0549,0.0596,0.0669,0.0718,0.0726,0.0809,0.0841,0.0896,0.0945,0.0986,0.1075,0.1122,0.1157,0.1162,0.1196,0.1177,0.1156,0.1179,0.1177,0.1176,0.1176,0.1176,0.1179,0.1178,0.1178,0,0.043,0.0501,0.0563,0.0607,0.0644,0.0703,0.0739,0.0782,0.0868,0.0892,0.0904,0.1015,0.1066,0.1125,0.1126,0.1153,0.1164,0.1168,0.1172,0.1172,0.1172,0.1173,0.1173,0.1176,0.1176,0.1176,0.1176,0,0.0458,0.0506,0.0526,0.0607,0.0646,0.0686,0.0752,0.0785,0.082,0.0867,0.0921,0.0984,0.105,0.1067,0.1103,0.113,0.1135,0.1159,0.1181,0.1166,0.1168,0.1169,0.1171,0.1172,0.1173,0.1174,0,0,0.0413,0.0525,0.0532,0.0568,0.0651,0.0689,0.073,0.0794,0.0819,0.0876,0.0911,0.0983,0.1005,0.1045,0.1087,0.1106,0.1104,0.1128,0.113,0.112,0.1136,0.1117,0.1116,0.1127,0.1127,0.1128,0.1129,0,0.0415,0.0492,0.0547,0.0602,0.0646,0.0702,0.0737,0.0791,0.0835,0.0878,0.0926,0.0976,0.1001,0.1025,0.1047,0.1099,0.1108,0.11,0.116,0.1161,0.114,0.1118,0.1099,0.1097,0.1131,0.1131,0.1131,0,0.0428,0.0482,0.0541,0.0617,0.0638,0.0669,0.073,0.0771,0.0833,0.0863,0.0905,0.0948,0.0992,0.1008,0.1069,0.1063,0.109,0.1119,0.112,0.1128,0.1145,0.1124,0.1099,0.1098,0.1133,0.1133,0.1133,0,0.0387,0.0475,0.0521,0.055,0.0641,0.0661,0.0699,0.0762,0.0795,0.0848,0.087,0.0928,0.0959,0.1002,0.1058,0.1065,0.1112,0.1134,0.1137,0.1136,0.1145,0.1144,0.1123,0.1163,0.1163,0.1163,0.1163,0,0.0384,0.0418,0.0503,0.0532,0.057,0.0633,0.0669,0.0712,0.0766,0.0803,0.0854,0.0887,0.0959,0.1001,0.1044,0.1087,0.1101,0.1126,0.1137,0.1121,0.1118,0.114,0.1141,0.1163,0.1163,0.1163,0.1163,0,0.0346,0.0405,0.0458,0.0539,0.0559,0.0584,0.0653,0.0681,0.0727,0.0772,0.0786,0.0857,0.0908,0.0968,0.1039,0.1068,0.1107,0.1124,0.1086,0.1092,0.1091,0.109,0.1084,0.1085,0.1125,0.1124,0.1124,0,0.034,0.0367,0.0449,0.0477,0.0514,0.0559,0.0593,0.0654,0.0687,0.0758,0.0777,0.0832,0.0879,0.0958,0.1015,0.1069,0.1087,0.1081,0.1096,0.1077,0.1085,0.1083,0.1085,0.1077,0.1076,0.1076,0.1075,0,0.0322,0.0349,0.0396,0.0453,0.0491,0.0539,0.0589,0.0608,0.068,0.0714,0.0766,0.0802,0.0873,0.0926,0.0987,0.1026,0.1061,0.107,0.1073,0.1057,0.1033,0.1044,0.1074,0.107,0.107,0.1071,0.1071,0.1071,0.03,0.0325,0.0386,0.0436,0.0479,0.0524,0.0554,0.0602,0.0647,0.0709,0.0742,0.0793,0.0852,0.0936,0.0973,0.1013,0.1026,0.1031,0.1032,0.1032,0.1027,0.1027,0.1025,0.1025,0.1025,0.1025,0.1025,0,0.0284,0.0325,0.037,0.0437,0.0475,0.0505,0.0561,0.0591,0.0635,0.0686,0.0731,0.0789,0.084,0.09,0.0954,0.0974,0.0992,0.0987,0.0986,0.0993,0.1013,0.1004,0.0971,0.0971,0.0971,0.0971,0.0971,0.0971,0.028,0.0324,0.0357,0.0423,0.0464,0.0514,0.0543,0.0583,0.0624,0.0687,0.0729,0.0767,0.0822,0.088,0.0927,0.0943,0.096,0.0949,0.097,0.0988,0.0992,0.0997,0.0989,0.0953,0.0953,0.0947,0.0947,0.0947]},{"header":{"parameterUnit":"m.s-1","parameterCategory":1,"la1":30.2991,"la2":30.254,"lo1":-89.0895,"lo2":-89.0444,"dy":0.0017,"dx":0.0017,"nx":28,"ny":28,"refTime":"2024-05-28T03:00:00:Z","depth":0,"parameterNumber":3,"parameterNumberName":"V-component_of_WINDS"},"data":[0,0,0,0,0,0,0,0,0,0,0,0,0,0,0,0,0,0,0,0,0,0,0,0,0,0,0,0,0,0,0,0,0,0,0,0,0,0,0,0,0,0,0,0,0,0,0,0,0,0,0,0,0,0,0,0,0,0,3.1831,3.1832,0,3.1851,3.1851,3.1851,3.1876,3.1877,3.1877,3.1877,3.1895,3.1895,3.1895,0,0,0,0,0,0,0,0,0,0,0,0,0,3.1815,3.1815,3.1831,3.1832,3.1832,3.1851,3.1851,3.1851,3.1876,3.1877,3.1877,3.1878,3.1895,3.1895,3.1895,0,0,0,0,0,0,0,0,0,0,0,0,0,3.1827,3.1815,3.1831,3.1847,3.1848,3.1851,3.1851,3.1851,3.1876,3.1877,3.1877,3.1878,3.1895,3.1895,3.1895,3.1883,0,0,3.1896,3.1896,0,0,0,0,0,0,0,0,3.1826,3.1827,3.1844,3.1846,3.1847,3.1862,3.1851,3.1862,3.1876,3.1865,3.1877,3.1878,3.1883,3.1884,3.1887,3.1884,3.1885,3.1896,3.1896,3.1896,3.1896,0,0,0,0,0,0,0,3.1825,3.1827,3.1839,3.1844,3.1846,3.1852,3.1854,3.1854,3.187,3.1866,3.1868,3.187,3.1884,3.1886,3.1887,3.1885,3.1896,3.1896,3.1896,3.1896,3.1873,3.1873,0,0,0,0,0,0,3.1822,3.1826,3.1838,3.184,3.1838,3.1852,3.1855,3.1856,3.1871,3.1873,3.187,3.1871,3.1886,3.1887,3.1888,3.1874,3.1896,3.1896,3.1896,3.1874,3.1873,3.1872,0,0,0,0,0,0,3.1822,3.1823,3.1838,3.1833,3.1835,3.1851,3.1853,3.1856,3.1859,3.1873,3.1876,3.1869,3.1886,3.1888,3.1884,3.1875,3.1896,3.1896,3.1875,3.1874,3.1873,3.1847,0,0,0,0,0,0,3.1821,3.1823,3.1819,3.1833,3.1836,3.1834,3.1853,3.1856,3.1859,3.1861,3.1873,3.1876,3.1887,3.1884,3.1884,3.1876,3.1896,3.1876,3.1874,3.1873,3.1848,3.1845,3.1842,0,0,0,0,0,3.1821,3.181,3.1818,3.182,3.1831,3.1833,3.1835,3.1849,3.1858,3.1854,3.1863,3.1875,3.1876,3.1883,3.1884,3.1875,3.1876,3.1875,3.1873,3.185,3.1845,3.1842,0,0,0,0,0,0,3.1794,3.1812,3.1822,3.1816,3.1823,3.1838,3.1833,3.1844,3.1848,3.185,3.1866,3.1869,3.1863,3.1869,3.1877,3.1864,3.1878,3.1877,3.186,3.1856,3.1853,3.1851,3.1896,0,0,0,0,0,3.1788,3.1789,3.1805,3.1798,3.1801,3.1816,3.1818,3.1828,3.1836,3.1839,3.1848,3.1854,3.1856,3.1857,3.1859,3.185,3.1852,3.1844,3.1841,3.1838,3.1836,3.1831,3.1827,3.1868,3.1868,3.1868,0,0,3.1774,3.1784,3.1784,3.1793,3.1799,3.1799,3.1818,3.1818,3.1817,3.1838,3.1835,3.1842,3.1851,3.1844,3.1842,3.1849,3.1826,3.1836,3.1834,3.1833,3.1829,3.1825,3.1821,3.1867,3.1867,3.1867,0,0,3.1749,3.1757,3.1752,3.1759,3.1769,3.1779,3.1778,3.1791,3.1797,3.1795,3.181,3.181,3.1813,3.1818,3.1821,3.1798,3.1809,3.1799,3.1781,3.1776,3.1772,3.1769,3.176,3.1756,3.1797,3.1797,3.1797,0,3.173,3.1731,3.1748,3.1746,3.1749,3.1769,3.1764,3.1769,3.1779,3.1781,3.1789,3.1793,3.18,3.1794,3.1789,3.1791,3.179,3.1797,3.1772,3.1769,3.1767,3.1758,3.1754,3.1796,3.1796,3.1796,3.1796,0,3.1707,3.1708,3.1702,3.1712,3.1715,3.1711,3.1727,3.1728,3.1738,3.1747,3.1744,3.1754,3.1758,3.1758,3.1768,3.1754,3.1758,3.1769,3.1783,3.1761,3.1753,3.1749,3.1794,3.1794,3.1795,3.1795,0,0,3.1664,3.1684,3.1681,3.1686,3.1699,3.1699,3.1697,3.1702,3.1701,3.1708,3.1705,3.1708,3.1718,3.1722,3.1732,3.1728,3.1708,3.1739,3.174,3.1732,3.1691,3.1681,3.1677,3.1716,3.1715,3.1715,3.1689,0,3.1639,3.1636,3.1651,3.1643,3.1643,3.1663,3.1661,3.1668,3.1677,3.1678,3.1688,3.1688,3.1703,3.1705,3.1702,3.1711,3.1699,3.1713,3.1712,3.1711,3.1707,3.1673,3.1662,3.1637,3.1687,3.1686,3.1686,0,3.161,3.1616,3.1608,3.1622,3.1622,3.162,3.1625,3.1627,3.1635,3.1642,3.1646,3.1659,3.1656,3.1671,3.1667,3.1676,3.1677,3.1682,3.1681,3.168,3.1696,3.1668,3.163,3.1626,3.1681,3.1681,3.1682,0,3.1577,3.1583,3.1579,3.1582,3.1598,3.1596,3.1603,3.1612,3.1614,3.1619,3.162,3.1625,3.1627,3.163,3.1643,3.1653,3.1637,3.1654,3.1641,3.1641,3.1635,3.1635,3.1594,3.1639,3.1639,3.1639,3.1639,0,3.1547,3.1541,3.1564,3.1561,3.1555,3.1573,3.1566,3.1575,3.1583,3.1582,3.16,3.1598,3.1617,3.1617,3.1628,3.1622,3.1623,3.1627,3.163,3.1624,3.1624,3.1623,3.1625,3.1638,3.1639,3.1639,3.1639,0,3.1507,3.1523,3.152,3.1536,3.154,3.1534,3.1548,3.1545,3.1556,3.1554,3.1555,3.1571,3.1572,3.1586,3.1591,3.1598,3.1587,3.1594,3.1584,3.1585,3.1571,3.1571,3.1527,3.1522,3.1572,3.1571,3.1571,0,3.1486,3.1482,3.1498,3.1499,3.1505,3.1506,3.1508,3.1526,3.1527,3.1538,3.1534,3.1537,3.1539,3.154,3.1552,3.1555,3.156,3.1545,3.1561,3.1555,3.1558,3.1557,3.1556,3.1541,3.154,3.154,3.1539,0,3.1446,3.1454,3.1457,3.1463,3.1465,3.147,3.1477,3.1476,3.1496,3.1497,3.1498,3.1501,3.1506,3.1507,3.1513,3.1519,3.1531,3.1535,3.1531,3.1525,3.1518,3.1519,3.1572,3.1535,3.1535,3.1536,3.1536,3.1536,3.1413,3.141,3.1421,3.1424,3.1431,3.1436,3.1435,3.1446,3.1448,3.1453,3.1464,3.1464,3.1473,3.1481,3.1486,3.1486,3.1494,3.149,3.1488,3.1486,3.1483,3.152,3.1487,3.1487,3.1488,3.1488,3.1488,0,3.1372,3.138,3.1383,3.1391,3.1393,3.1408,3.1415,3.1415,3.1415,3.1423,3.1426,3.1428,3.143,3.1442,3.1446,3.1443,3.1449,3.1443,3.1442,3.1443,3.1477,3.1478,3.1438,3.1438,3.1438,3.1438,3.1438,3.1438,3.1351,3.1346,3.1356,3.1354,3.1363,3.1363,3.1366,3.1371,3.1377,3.1378,3.1381,3.1389,3.1399,3.1403,3.1405,3.1409,3.1408,3.14,3.1405,3.1436,3.1441,3.1445,3.1446,3.14,3.14,3.1371,3.1371,3.1371]}]]